Overview Statistics Trail Chart Weather Telemetry Raw packets
 

This is the latest recevied weather packets stored in our database for station/object PP5CFL-2. If no packets are shown the sender has not sent any weather packets the latest 10 day(s).

<< 45 46 47 48 49 50 51 >>
Time Temp. Humidity Pressure Rain* Wind** Luminosity Snow
1788367316 24.44° C 84% 1018.5 hPa - - - -
1788367016 24.44° C 83% 1018.6 hPa - - - -
1788366716 24.44° C 82% 1018.5 hPa - - - -
1788366416 24.44° C 85% 1018.6 hPa - - - -
1788366116 24.44° C 80% 1018.7 hPa - - - -
1788365816 24.44° C 78% 1018.7 hPa - - - -
1788365516 25° C 81% 1018.7 hPa - - - -
1788365216 25° C 81% 1018.8 hPa - - - -
1788364916 24.44° C 80% 1019.1 hPa - - - -
1788364616 25° C 79% 1019 hPa - - - -
1788364316 25° C 81% 1019.1 hPa - - - -
1788364016 25° C 81% 1019.3 hPa - - - -
1788363716 25° C 80% 1019.2 hPa - - - -
1788363416 25° C 82% 1019.1 hPa - - - -
1788363116 25° C 81% 1019.3 hPa - - - -
1788362816 25° C 81% 1019.4 hPa - - - -
1788362516 25° C 82% 1019.5 hPa - - - -
1788362216 25° C 83% 1019.5 hPa - - - -
1788361916 23.89° C 84% 1020 hPa - - - -
1788361616 23.33° C 84% 1020.1 hPa - - - -
1788361316 23.89° C 83% 1020 hPa - - - -
1788361016 24.44° C 82% 1020 hPa - - - -
1788360716 25.56° C 77% 1019.8 hPa - - - -
1788360425 26.11° C 75% 1019.5 hPa - - - -
1788360116 25.56° C 77% 1019.8 hPa - - - -

* Rain since midnight (hover to see other rain measurements)
** Current wind speed in m/s (hover to see current wind gust speed)